Location: Le Hiès Ruisseau
(43.3000°N, 0.4500°W)
Time: 01:38:33
(UTC+00:00)

Cosmos 1455 Rocket - Pass Details

Date: 28 January 2023
Orbit: 603 x 628 km, 82.5° (Epoch: 27 March)

Event Time Altitude Azimuth Distance (km) Brightness Sun altitude
Rises 17:33:40 0° 352° (N) 2,893 6.4 -5.2°
Reaches altitude 10° 17:35:55 10° 354° (N) 1,979 5.5 -5.6°
Maximum altitude 17:40:18 80° 81° (E) 625 3.0 -6.3°
Drops below altitude 10° 17:44:37 10° 169° (S) 1,950 5.7 -7.0°
Sets 17:46:48 0° 171° (S) 2,846 6.6 -7.4°
